Temp
-3 -3 -3 -2 -2 -1 0 3 8 10 13 13 13 13 13 13 13 13 12 12 12 12
-4 -3 -3 -3 -2 -1 -1 1 5 8 12 12 12 13 13 13 12 12 12 12 12 12
-5 -4 -3 -3 -3 -2 -2 -1 3 5 12 11 12 13 13 13 12 12 12 12 12 12
-5 -4 -4 -4 -3 -3 -2 -2 0 3 9 11 11 12 14 12 12 12 12 12 12 12
-6 -5 -4 -4 -3 -3 -3 -2 -1 1 6 10 11 12 12 12 12 12 12 12 12 12
-6 -5 -4 -4 -4 -3 -3 -3 -2 0 2 7 10 11 11 11 11 12 12 12 11 11
-6 -6 -5 -4 -4 -4 -4 -3 -2 -1 -0 3 5 11 11 11 11 11 11 11 11 11
-6 -6 -6 -5 -4 -4 -4 -3 -3 -2 -0 1 3 5 11 11 11 10 10 11 11 11
-6 -6 -6 -5 -5 -4 -4 -4 -3 -3 -2 -1 0 2 5 10 10 10 10 10 10 10
-6 -6 -6 -6 -5 -4 -4 -4 -4 -3 -3 -2 -0 -0 3 7 9 10 10 10 10 10
-7 -7 -6 -6 -6 -5 -4 -4 -4 -4 -4 -1 -1 -0 2 4 6 7 8 8 9 9
-7 -7 -7 -6 -6 -5 -5 -5 -4 -4 -4 -2 -1 -0 1 3 3 4 5 6 6 7
-8 -7 -7 -7 -6 -6 -5 -5 -5 -5 -3 -2 -1 -0 1 2 3 3 4 4 5 5
-8 -8 -8 -7 -6 -6 -5 -5 -4 -4 -3 -2 -1 -1 0 1 2 3 3 3 4 4
Height
770 761 755 747 741 736 730 724 721 720 721 722 726 729 732 737 742 749 755 760 766 772
769 758 755 745 738 734 728 722 716 714 714 715 717 720 724 730 735 741 748 753 758 765
767 759 754 749 737 732 724 718 712 709 707 708 709 712 715 721 728 734 740 745 752 758
767 758 748 742 737 732 723 716 706 704 697 699 700 704 706 713 720 726 732 738 743 749
762 756 751 744 738 727 720 712 707 699 692 689 692 694 699 705 711 717 724 729 736 742
758 750 746 741 736 727 720 715 710 692 688 683 681 683 690 697 702 710 716 722 729 735
759 753 748 741 733 727 722 716 703 693 686 680 676 677 681 688 696 702 709 716 723 729
758 752 746 739 733 726 721 712 705 700 687 680 678 676 673 681 689 696 704 710 718 724
757 751 744 737 732 726 720 714 701 702 692 688 683 675 663 671 682 691 697 705 713 720
755 749 743 737 729 722 715 712 709 696 697 692 683 686 673 667 675 685 694 702 710 716
752 746 741 734 728 721 716 711 706 704 702 683 684 686 681 672 675 684 692 701 705 712
748 742 737 733 728 721 717 713 707 707 699 696 695 696 690 679 682 688 692 698 704 710
745 740 735 729 722 718 716 714 711 707 702 699 699 691 688 686 689 690 692 697 704 709
741 737 732 727 722 717 716 714 708 704 699 701 695 698 699 695 693 693 694 699 704 708
Wind_Speed
32 28 25 24 24 22 24 27 28 25 33 35 36 40 42 40 39 39 39 37 34 33
32 30 30 28 26 25 25 22 25 28 31 36 37 41 41 37 36 37 38 36 37 36
34 30 29 27 25 29 29 25 19 25 31 35 37 40 39 34 34 35 34 34 37 35
32 32 30 30 28 26 29 29 23 21 24 37 37 37 40 34 32 34 34 34 36 35
33 30 27 27 29 29 31 31 27 20 13 30 38 37 37 36 35 37 34 33 33 32
31 32 32 27 29 28 29 29 29 22 15 9 32 37 39 38 35 35 34 33 33 31
28 31 29 29 27 28 26 27 31 26 26 13 15 37 39 37 35 33 33 34 33 31
27 27 30 29 27 25 26 25 25 25 26 22 19 20 35 36 34 32 31 32 29 28
25 25 26 28 27 23 24 24 25 25 25 25 21 25 6 38 34 31 30 28 26 25
23 23 25 25 26 24 24 24 21 24 24 21 23 22 18 23 31 28 25 24 24 21
24 23 24 24 23 22 24 24 23 20 21 22 22 21 19 14 21 21 20 20 19 18
24 25 23 22 21 20 20 20 22 20 18 15 17 12 14 16 13 15 14 11 12 14
25 23 23 23 23 22 18 18 18 19 12 11 13 13 15 13 10 11 12 10 6 3
24 22 21 20 22 21 19 15 16 17 12 6 10 10 10 11 11 11 10 7 5 3
Wind_Direction
331 337 334 333 333 324 314 294 276 277 239 228 220 212 209 203 202 199 200 200 198 199
333 337 333 338 339 330 326 307 281 275 242 230 219 211 204 198 200 200 202 203 200 200
332 329 336 336 342 337 335 328 301 282 244 227 219 205 198 200 202 199 201 202 199 202
328 330 334 338 342 339 338 338 338 301 247 225 220 209 203 200 201 200 199 202 195 199
326 333 327 334 338 345 341 346 332 329 283 230 219 202 197 197 199 200 196 195 193 194
325 332 327 327 338 343 344 343 327 7 345 312 216 200 199 199 195 196 195 192 190 191
325 325 328 330 333 343 341 336 353 10 9 17 9 197 189 184 188 187 186 189 193 191
323 321 326 328 333 338 342 342 356 0 16 29 35 358 175 177 178 176 178 187 195 205
321 321 323 324 329 335 339 344 1 356 11 14 20 360 37 166 167 176 179 181 189 198
319 320 319 321 326 334 338 348 349 1 351 10 11 346 4 134 152 161 167 172 180 188
318 319 319 321 322 330 336 338 351 354 339 17 3 352 5 72 123 133 141 157 169 186
317 316 315 315 315 329 330 332 345 340 351 2 348 353 6 62 92 118 122 135 153 165
311 310 311 312 317 320 325 329 329 333 355 360 348 10 13 32 45 87 105 108 127 145
307 307 309 312 316 320 319 325 340 339 350 345 15 6 11 33 46 47 71 80 93 115